Regional Weather Roundup
Issued by NWS

Home | Current Version | Previous Version | Text Only | Print | Product List | Glossary Off
Versions: 1 2 3 4 5 6 7 8 9 10 11 12 13 14 15 16 17 18 19 20 21 22 23 24 25 26 27 28 29 30 31 32 33 34 35 36 37 38 39 40 41 42 43 44 45 46 47 48 49 50

000
ASUS43 KMKX 191300
RWRWI

WISCONSIN REGIONAL WEATHER ROUNDUP
NATIONAL WEATHER SERVICE MILWAUKEE/SULLIVAN WI
800 AM CDT SUN APR 19 2015

NOTE: "FAIR" INDICATES FEW OR NO CLOUDS BELOW 12,000 FEET WITH NO
SIGNIFICANT WEATHER AND/OR OBSTRUCTIONS TO VISIBILITY.

WIZ001-002-006>008-014>016-023>028-191400-
NORTHWEST WISCONSIN

CITY           SKY/WX    TMP DP  RH WIND       PRES   REMARKS
SUPERIOR ARPT  RAIN      37  36  97 NE12      29.81S WCI  29
ASHLAND        LGT RAIN  41  40  96 E5        29.81F FOG
HAYWARD        CLOUDY    45  36  70 VRB6      29.78F
SIREN          RAIN      44  38  80 SE7       29.76F
CUMBERLAND     LGT RAIN  41  36  81 SE8       29.77F
RICE LAKE      CLOUDY    45  35  66 SE12G17   29.79F
CHETEK         CLOUDY    46  35  65 E10       29.78F
LADYSMITH      CLOUDY    48  32  55 SE10      29.83F
EAU CLAIRE     NOT AVBL
MENOMONIE      CLOUDY    46  35  65 E7        29.78F
NEW RICHMOND   DRIZZLE   44  38  79 SE8       29.76F
OSCEOLA        RAIN      44  44  98 SE8       29.78F
$$

WIZ003>005-009-010-017-018-191400-
NORTH CENTRAL WISCONSIN

CITY           SKY/WX    TMP DP  RH WIND       PRES   REMARKS
MANITOWISH WTR DRIZZLE   40  31  68 SE8       29.84F WCI  35
ARBOR VITAE    CLOUDY    43  30  61 SE10G16   29.85F
WOODRUFF       CLOUDY    43  30  61 SE10G16   29.85F
RHINELANDER    CLOUDY    45  25  45 E15       29.87F
EAGLE RIVER    CLOUDY    43  22  43 SE13      29.89R
LAND O LAKES   CLOUDY    43  24  47 SE10      29.91F
PHILLIPS       CLOUDY    44  30  59 SE10      29.82F
TOMAHAWK       LGT RAIN  44  24  45 SE7       29.87F
MEDFORD        CLOUDY    44  28  53 SE10      29.83F
MERRILL        CLOUDY    46  27  47 SE10G18   29.88F
$$

WIZ029-030-035-036-043>047-191400-
CENTRAL WISCONSIN

CITY           SKY/WX    TMP DP  RH WIND       PRES   REMARKS
WAUSAU         PTSUNNY   47  27  45 SE14      29.86F
MOSINEE        NOT AVBL
MARSHFIELD     MOSUNNY   49  29  46 SE16      29.84F
STEVENS POINT  PTSUNNY   45  28  51 E9        29.88F
WAUPACA        PTSUNNY   51  31  47 E12       29.91S
WAUTOMA        NOT AVBL
WISC RAPIDS    MOSUNNY   50  25  37 SE9       29.86F
CAMP DOUGLAS   NOT AVBL
$$

WIZ011>013-019>022-031-037>040-048>050-191400-
NORTHEAST WISCONSIN

CITY           SKY/WX    TMP DP  RH WIND       PRES   REMARKS
ANTIGO         CLOUDY    42  27  55 SE22G33   29.90F
SHAWANO        CLOUDY    47  31  55 E7        29.94F
OCONTO         CLOUDY    45  31  57 E7        29.96F
STURGEON BAY   PTSUNNY   43  28  56 SE8       29.97F
GREEN BAY      CLOUDY    49  30  48 SE15      29.93F
MANITOWOC      NOT AVBL
APPLETON       PTSUNNY   48  28  46 SE16G25   29.90F
CLINTONVILLE   CLOUDY    46  30  53 E9        29.91F
OSHKOSH        MOSUNNY   50  30  46 SE20G26   29.88F
$$

WIZ032>034-041-042-053>061-191400-
SOUTHWEST WISCONSIN

CITY           SKY/WX    TMP DP  RH WIND       PRES   REMARKS
LA CROSSE      CLOUDY    53  36  52 E8        29.79S
SPARTA         CLOUDY    50  34  54 E5        29.82F
VIROQUA        CLOUDY    51  33  49 SE12      29.81S
BOSCOBEL       CLOUDY    56  35  45 CALM      29.81F
PRAIRIE DU CHI CLOUDY    54  37  53 SE6       29.79F
PLATTEVILLE    CLOUDY    52  37  56 E9        29.80F
$$

WIZ056-057-062-063-064-067-068-191400-
SOUTH CENTRAL WISCONSIN

CITY           SKY/WX    TMP DP  RH WIND       PRES   REMARKS
REEDSBURG      PTSUNNY   51  32  48 E3        29.83F
BARABOO/DELLS  PTSUNNY   51  29  43 E7        29.84F
LONE ROCK      NOT AVBL
MINERAL POINT  MOSUNNY   52  32  46 E12       29.81F
MADISON        PTSUNNY   51  30  44 SE14      29.84F
MIDDLETON      MOSUNNY   52  30  43 SE9       29.85S
WATERTOWN      MOSUNNY   48  32  52 E12       29.87S
MONROE         CLOUDY    50  34  53 E8        29.82F
JANESVILLE     SUNNY     54  32  43 E12       29.84F
$$

WIZ051-052-058>065-066-070>072-191400-
SOUTHEAST WISCONSIN

CITY           SKY/WX    TMP DP  RH WIND       PRES   REMARKS
MILWAUKEE      PTSUNNY   46  33  60 E9        29.90F
WAUKESHA       PTSUNNY   46  30  53 E12       29.90F
MILWAUKEE/TIMM SUNNY     46  28  49 E7        29.91F
RACINE         MOSUNNY   47  32  56 E12       29.91F
BURLINGTON     PTSUNNY   48  31  53 E8        29.88F
KENOSHA        MOSUNNY   50  33  52 E10       29.88F
FOND DU LAC    MOSUNNY   49  30  48 SE18G26   29.88F
SHEBOYGAN      CLOUDY    46  31  55 SE8       29.94F
WEST BEND      MOSUNNY   45  30  57 E10       29.92F
JUNEAU         SUNNY     46  31  54 E14       29.89S
$$

LSZ147-162-191400-
LAKE SUPERIOR

STATION/POSITION TIME  TEMP    WIND        PRES    WAVE
                       AIR SEA DIR/SP/G            HT/PER
                 (UTC) (F)     (DEG/KT/KT) (MB)    (FT/S)
DEVILS ISLAND    1200   39      70/ 16/ 18 1011.0F
PORT WING        1240   38      40/ 11/ 13 1009.8F
SAXON HARBOR     1200   42      CALM  /  5 1009.8F
$$

LMZ867-665-643>646-191400-
LAKE MICHIGAN

STATION/POSITION TIME  TEMP    WIND        PRES    WAVE
                       AIR SEA DIR/SP/G            HT/PER
                 (UTC) (F)     (DEG/KT/KT) (MB)    (FT/S)
CHAMBERS ISLAND  1200   42      60/  5/  9 1016.3S
NORTHPORT PIER   1220   40     100/  9/ 11 1016.6S
SISTER BAY       1232   44     110/ 13/ 17   N/A
KEWAUNEE LAKESHO 1200   41      70/  2/  5 1014.2F
SHEBOYGAN LAKESH 1200   44     160/  4/  5 1015.2F
PORT WASHINGTON  1200   44      80/  5/  8 1014.9F
MILWAUKEE LAKESH 1200   43      50/  8/  9   N/A
KENOSHA   LAKESH 1200   43      50/  6/  7 1012.9F
$$

TC  - TEMPERATURE IN CELSIUS
VSB - VISIBILITY IN STATUTE MILES
WCI - WIND CHILL INDEX
HX  - HEAT INDEX



USA.gov is the U.S. government's official web portal to all federal, state and local government web resources and services.